This demonstration page uses our WeatherBlox Daily Observations layout. Learn more.

Left ArrowRight Arrow

Hourly Observations for September 18, 2020

Temp ( °F °C ) Dew Point ( °F °C ) Humidity (%) Winds ( mph kmh ) Pressure ( in mb ) Visibility ( mi km ) Precip ( " mm )
12:51 am 00:51 Clear 73 22.8 34 1.1 24 24 E 9 15 29.93 1014 10 16.0934 0 0
1:51 am 01:51 Clear 72 22.2 33 0.6 24 24 E 9 15 29.93 1014 10 16.0934 0 0
2:51 am 02:51 Clear 73 22.8 33 0.6 23 23 SSE 9 15 29.93 1014 10 16.0934 0 0
3:51 am 03:51 Clear 74 23.3 33 0.6 22 22 ESE 12 19 29.93 1014 10 16.0934 0 0
4:51 am 04:51 Clear 69 20.6 33 0.6 26 26 SSE 10 17 29.95 1014 10 16.0934 0 0
5:51 am 05:51 Clear 67 19.4 34 1.1 30 30 SE 8 13 29.98 1015 10 16.0934 0 0
6:51 am 06:51 Sunny 71 21.7 36 2.2 28 28 ESE 8 13 30 1016 10 16.0934 0 0
7:51 am 07:51 Sunny 76 24.4 36 2.2 23 23 ESE 12 19 30 1016 10 16.0934 0 0
8:51 am 08:51 Sunny 82 27.8 42 5.6 24 24 E 12 19 30.01 1016 10 16.0934 0 0
9:51 am 09:51 Sunny 83 28.3 43 6.1 24 24 SSE 9 15 30.01 1016 10 16.0934 0 0
10:51 am 10:51 Sunny 86 30 47 8.3 26 26 ESE 9 15 29.99 1016 10 16.0934 0 0
11:51 am 11:51 Sunny 90 32.2 49 9.4 24 24 SE 13 20 29.97 1015 10 16.0934 0 0
12:51 pm 12:51 Sunny 91 32.8 45 7.2 20 20 SE 10 17 29.93 1014 10 16.0934 0 0
1:51 pm 13:51 Sunny 93 33.9 46 7.8 20 20 SE 12 19 29.89 1012 10 16.0934 0 0
2:51 pm 14:51 Sunny 93 33.9 44 6.7 18 18 SSE 15 24 29.87 1012 10 16.0934 0 0
3:51 pm 15:51 Sunny 94 34.4 43 6.1 17 17 S 18 30 29.85 1011 10 16.0934 0 0
4:51 pm 16:51 Sunny 92 33.3 43 6.1 18 18 SE 15 24 29.85 1011 10 16.0934 0 0
5:51 pm 17:51 Sunny 89 31.7 42 5.6 19 19 SSE 12 19 29.86 1011 10 16.0934 0 0
6:51 pm 18:51 Clear 86 30 43 6.1 22 22 SE 10 17 29.88 1012 10 16.0934 0 0
7:51 pm 19:51 Clear 84 28.9 44 6.7 25 25 ESE 10 17 29.9 1013 10 16.0934 0 0
8:51 pm 20:51 Clear 81 27.2 44 6.7 27 27 SE 7 11 29.91 1013 10 16.0934 0 0
9:51 pm 21:51 Clear 78 25.6 43 6.1 29 29 SE 7 11 29.93 1013 10 16.0934 0 0
10:51 pm 22:51 Clear 76 24.4 44 6.7 32 32 SE 8 13 29.93 1014 10 16.0934 0 0
11:51 pm 23:51 Clear 76 24.4 45 7.2 33 33 ESE 8 13 29.93 1014 10 16.0934 0 0

Powered by AerisWeather